SCP
0 0 0 0 0 0 0 0 0 0 0 0 0 0 0 0 0 0 0 0 0 0 0 0 0 0 0 0 0 0 0 0 0 0 0 0 0 0 0 0 0 0 0 0
0 0 0 0 0 0 0 0 0 0 0 0 0 0 0 0 0 0 0 0 0 0 0 0 0 0 0 0 0 0 0 0 0 0 0 0 0 0 0 0 0 0 0 0
0 0 0 0 0 0 0 0 0 0 0 0 0 0 0 0 0 0 0 0 0 0 0 0 0 0 0 0 0 0 0 0 0 0 0 0 0 0 0 0 0 0 0 0
0 0 0 0 0 0 0 0 0 0 0 0 0 0 0 0 0 0 0 0 0 0 0 0 0 0 0 0 0 0 0 0 0 0 0 0 0 0 -0 0 -0 -0 0 0
0 0 0 0 0 0 0 0 0 0 0 0 0 0 0 0 0 0 0 0 0 0 0 0 0 0 0 0 0 0 0 0 0 0 0 0 0 0 0 0 0 0 0 0
0 0 0 0 0 0 0 0 0 0 0 0 0 0 0 0 0 0 0 0 0 0 0 0 0 0 0 0 0 0 0 0 0 0 0 0 0 0 0 0 0 0 0 0
0 0 0 0 0 0 0 0 0 0 0 0 0 0 0 0 0 0 0 0 0 0 0 0 0 0 0 0 0 0 0 0 0 0 0 0 0 0 0 0 0 0 0 0
0 0 0 0 0 0 0 0 0 0 0 0 0 0 0 0 0 0 0 0 0 0 0 0 0 0 0 0 0 0 0 0 0 0 0 0 0 0 0 0 0 0 0 0
0 0 0 0 0 0 0 0 0 0 0 0 0 0 0 0 0 0 0 0 0 0 0 0 0 0 0 0 0 0 0 0 0 0 0 0 0 0 0 0 0 0 0 0
0 0 0 0 0 0 0 0 0 0 0 0 0 0 0 0 0 0 0 0 0 0 0 0 0 0 0 0 0 0 0 0 0 0 0 0 0 0 0 0 0 0 0 0
0 0 0 0 0 0 0 0 0 0 0 0 0 0 0 0 0 0 0 0 0 0 0 0 0 0 0 0 0 0 0 0 0 0 0 0 0 0 0 0 0 0 0 0
0 0 0 0 0 0 0 0 0 0 0 0 0 0 0 0 0 0 0 0 0 0 0 0 0 0 0 0 0 0 0 0 0 0 0 0 0 0 0 0 0 0 0 0
0 0 0 0 0 0 0 0 0 0 0 0 0 0 0 0 0 0 0 0 0 0 0 0 0 0 0 0 0 0 0 0 0 0 0 0 0 0 0 0 0 0 0 0
0 0 0 0 0 0 0 0 0 0 0 0 0 0 0 0 0 0 0 0 0 0 0 0 0 0 0 0 0 0 0 0 0 0 0 0 0 0 0 0 0 0 0 0
0 0 0 0 0 0 0 0 0 0 0 0 0 0 0 0 0 0 0 0 0 0 0 0 0 0 0 0 0 0 0 0 0 0 0 0 0 0 0 0 0 0 0 0
0 0 0 0 0 0 0 0 0 0 0 0 0 0 0 0 0 0 0 0 0 0 0 0 0 0 0 0 0 0 0 0 0 0 0 0 0 0 0 0 0 0 0 0
0 0 0 0 0 0 0 0 0 0 0 0 0 0 0 0 0 0 0 0 0 0 0 0 0 0 0 0 0 0 0 0 0 0 0 0 0 0 0 0 0 0 0 0
0 0 0 0 0 0 0 0 0 0 0 0 0 0 0 0 0 0 0 0 0 0 0 0 0 0 0 0 0 0 0 0 0 0 0 0 0 0 0 0 0 0 0 0
0 0 0 0 0 0 0 0 0 0 0 0 0 0 0 0 0 0 0 0 0 0 0 0 0 0 0 0 0 0 0 0 0 0 0 0 0 0 0 0 0 0 0 0
0 0 0 0 0 0 0 0 0 0 0 0 0 0 0 0 0 0 0 0 0 0 0 0 0 0 0 0 0 0 0 0 0 0 0 0 0 0 0 0 0 0 0 0
0 0 0 0 0 0 0 0 0 0 0 0 0 0 0 0 0 0 0 0 0 0 0 0 0 0 0 0 0 0 0 0 0 0 0 0 0 0 0 0 0 0 0 0
0 0 0 0 0 0 0 0 0 0 0 0 0 0 0 0 0 0 0 0 0 0 0 0 0 0 0 0 0 0 0 0 0 0 0 0 0 0 0 0 0 0 0 0
0 0 0 0 0 0 0 0 0 0 0 0 0 0 0 0 0 0 0 0 0 0 0 0 0 0 0 0 0 0 0 0 0 0 0 0 0 0 0 0 0 0 0 0
0 0 0 0 0 0 0 0 0 0 0 0 0 0 0 0 0 0 0 0 0 0 0 0 0 0 0 0 0 0 0 0 0 0 0 0 0 0 0 0 0 0 0 0
0 0 0 0 0 0 0 0 0 0 0 0 0 0 0 0 0 0 0 0 0 0 0 0 0 0 0 0 0 0 0 0 0 0 0 0 0 0 0 0 0 0 0 0
0 0 0 0 0 0 0 0 0 0 0 0 0 0 0 0 0 0 0 0 0 0 0 0 0 0 0 0 0 0 0 0 0 0 0 0 0 0 0 0 0 0 0 0
0 0 0 0 0 0 0 0 0 0 0 0 0 0 0 0 0 0 0 0 0 0 0 0 0 0 0 0 0 0 0 0 0 0 0 0 0 0 0 0 0 0 0 0
Wind_Speed_500mb
34 36 39 40 38 34 23 20 6 19 45 19 11 17 9 12 8 2 6 8 18 26 18 20 19 28 24 2 15 22 15 7 12 38 32 20 21 33 40 27 24 25 34 38
27 25 18 20 19 22 27 17 9 30 48 13 17 12 12 17 13 14 7 11 9 4 16 13 23 24 5 11 8 7 6 6 17 14 14 1 12 14 18 15 3 29 29 7
17 17 13 10 11 22 31 15 7 12 31 19 13 19 18 17 7 12 23 18 14 15 20 20 20 17 6 12 8 15 5 8 15 26 32 30 19 21 16 18 12 22 23 35
24 11 10 12 15 13 27 12 6 9 10 19 15 8 5 8 9 4 6 6 9 1 9 9 16 19 12 6 9 4 1 14 20 25 24 23 27 32 34 33 29 17 30 36
22 19 18 13 8 16 16 12 10 8 5 3 9 15 23 37 29 21 14 22 23 11 20 24 24 15 18 26 5 6 3 16 21 27 33 28 32 35 39 38 41 44 47 51
27 26 21 25 15 20 9 14 13 9 11 9 12 10 12 7 14 4 5 7 1 6 9 3 5 12 16 16 8 3 5 8 15 35 31 19 21 39 34 38 46 47 45 27
24 27 24 28 27 24 21 15 15 10 6 15 12 10 11 14 10 6 12 1 4 4 6 18 25 25 35 41 42 41 27 25 12 22 16 38 30 23 27 35 35 1 6 7
38 27 24 19 19 30 32 28 21 13 5 16 14 19 12 9 9 11 18 22 22 16 2 2 9 4 5 14 33 33 38 28 16 16 30 36 39 33 18 17 27 14 15 7
39 33 31 41 38 35 38 37 31 16 8 16 18 18 25 12 10 4 10 10 15 15 8 4 8 8 1 8 10 7 14 26 20 5 14 19 14 4 5 4 18 18 10 5
48 56 56 55 44 42 56 55 45 40 17 28 30 14 15 19 15 5 4 11 12 25 9 8 10 10 6 10 7 6 3 5 24 25 23 18 11 9 12 10 9 17 21 33
48 52 47 44 62 56 47 53 59 68 30 38 44 53 27 20 26 11 15 8 6 7 13 9 8 11 12 6 9 7 11 11 8 2 7 20 11 14 11 3 29 40 38 45
55 59 59 56 49 46 58 57 49 45 52 28 27 62 64 64 49 36 36 21 18 24 9 10 5 7 6 12 16 12 15 20 13 17 14 9 15 20 35 57 57 59 51 50
60 62 60 50 55 54 54 64 62 43 45 36 47 48 64 65 76 67 37 27 39 29 35 14 8 15 10 12 17 26 31 41 22 25 38 42 60 64 68 71 60 54 50 49
64 59 61 60 59 56 58 66 69 59 19 11 38 54 63 56 58 76 81 73 37 41 42 20 11 11 25 15 21 24 27 12 20 29 41 50 63 63 71 67 58 49 44 41
58 58 60 58 59 56 57 58 60 51 48 6 11 27 41 42 42 57 66 79 53 27 16 12 16 28 17 22 20 27 40 37 24 31 57 43 63 63 55 48 41 38 38 35
59 56 55 56 57 55 55 46 70 67 59 16 9 31 59 55 54 57 61 74 68 53 21 14 24 44 20 11 22 47 49 51 62 57 79 63 73 57 50 51 44 35 32 31
59 59 57 56 55 58 57 19 25 37 68 20 7 9 33 46 43 50 48 53 39 38 29 20 24 31 24 9 19 51 51 55 65 70 62 56 49 29 37 38 34 30 30 30
55 55 55 53 54 60 73 82 39 34 54 20 7 5 2 20 13 16 26 23 31 23 18 19 17 15 16 15 37 54 56 67 67 63 59 53 38 34 33 30 29 28 28 32
49 49 49 51 62 60 55 62 76 63 42 12 13 11 8 19 12 13 17 21 9 13 11 15 16 13 15 23 38 50 64 46 44 42 39 31 30 30 28 26 26 27 26 31
42 39 30 21 53 61 40 34 38 45 34 30 9 21 9 26 22 19 14 13 7 9 14 13 11 24 55 45 56 61 47 34 26 20 21 27 26 26 27 26 25 25 30 38
44 25 24 21 33 50 31 16 14 11 10 22 19 43 10 28 9 10 17 5 7 8 7 11 8 11 21 54 56 46 39 28 28 28 27 23 23 22 24 25 27 32 38 44
38 20 22 28 25 17 11 14 12 11 11 14 12 20 34 21 18 8 13 8 8 11 8 6 6 9 26 25 27 27 24 23 22 21 20 18 19 22 25 30 35 39 42 43
31 18 19 14 15 14 15 20 5 7 10 28 22 10 24 16 19 8 8 11 11 11 7 8 10 4 12 20 20 17 17 15 15 15 15 17 20 25 31 36 36 42 45 41
25 15 15 13 8 12 9 10 13 16 30 54 41 14 8 12 10 6 9 4 7 8 7 12 6 10 18 18 17 17 15 13 12 15 19 22 27 30 30 35 41 45 44 39
17 15 11 9 4 7 5 16 16 23 47 57 18 11 11 4 7 7 8 8 10 11 10 7 7 20 21 18 16 14 13 12 14 18 22 25 29 33 33 32 35 37 37 34
13 5 7 6 5 2 7 18 17 33 51 31 15 8 7 8 7 10 14 11 14 9 7 12 24 27 25 23 18 11 10 13 17 21 24 27 29 30 31 29 28 27 28 25
5 3 5 6 3 8 12 14 19 44 29 6 7 12 15 7 7 9 9 11 9 8 17 29 27 24 21 16 11 10 12 14 17 18 21 22 24 26 27 26 20 20 17 16
Wind_Direction_500mb
252 254 257 260 265 264 242 196 178 175 160 172 192 227 211 231 239 342 294 302 257 258 275 273 264 258 251 129 295 273 243 250 246 262 264 247 254 263 252 243 250 247 254 256
253 247 242 250 228 206 177 175 135 168 173 197 212 222 229 239 225 230 225 250 237 232 262 270 254 262 290 318 293 289 15 246 275 255 245 177 245 259 272 279 308 250 259 238
214 187 208 222 163 174 174 163 141 172 205 230 220 236 252 237 268 250 232 241 245 254 257 252 271 282 357 351 346 344 317 223 254 275 284 308 285 269 263 248 260 276 254 273
214 203 207 220 213 179 175 162 186 173 185 224 209 245 223 203 207 245 238 224 195 122 269 291 254 280 285 236 344 259 281 268 278 275 280 279 273 275 265 260 268 258 285 288
205 217 217 223 221 192 187 162 154 164 142 90 181 208 240 245 247 247 238 258 279 278 251 251 284 297 271 272 287 284 189 262 288 282 278 259 263 261 264 275 272 264 261 266
209 227 220 210 220 191 179 183 162 153 147 167 186 206 215 166 163 94 136 114 294 236 255 204 199 249 257 260 259 274 276 270 270 270 276 288 260 246 260 267 270 271 275 293
222 226 231 211 209 212 214 199 174 155 198 202 204 192 193 173 178 232 182 164 220 214 260 297 283 263 260 255 253 238 248 245 257 272 299 258 274 314 276 271 281 32 115 129
224 227 231 225 220 214 213 210 198 179 215 210 203 202 194 192 223 244 251 252 247 268 220 234 311 292 303 259 239 245 233 253 257 251 251 287 301 281 253 245 278 182 161 177
237 233 231 226 221 219 225 230 217 197 150 226 202 202 216 218 214 231 221 233 210 188 177 156 222 246 285 284 308 46 225 236 236 167 249 265 306 124 109 122 276 176 189 261
241 240 239 242 238 227 227 229 223 213 211 231 183 191 195 175 176 188 181 177 172 190 203 197 207 239 209 244 230 246 183 204 229 237 250 266 267 151 144 237 293 170 250 272
242 240 239 241 236 236 230 236 228 213 224 239 220 221 198 173 182 182 177 141 198 175 203 203 203 218 205 217 245 234 253 250 206 169 248 267 172 130 222 267 299 300 289 293
246 242 239 230 230 228 234 240 240 246 227 243 240 239 244 244 242 222 195 208 163 183 186 207 195 209 190 218 257 206 251 226 255 215 246 257 200 244 258 285 288 286 288 294
244 242 241 236 238 235 225 234 242 228 235 249 244 242 254 245 239 239 227 227 223 213 224 180 213 236 179 231 237 257 257 258 244 262 254 259 268 268 273 279 279 283 287 293
243 243 240 235 239 239 233 228 232 221 227 244 262 266 256 258 240 236 235 234 226 227 219 208 213 227 198 229 242 237 246 251 241 252 262 273 266 267 270 274 276 276 276 281
248 244 243 240 237 240 240 237 233 233 220 288 286 280 262 260 253 238 235 229 225 212 199 208 224 237 229 243 252 250 246 243 246 256 268 262 273 276 277 275 262 259 271 276
249 246 244 244 242 234 229 225 228 231 231 235 238 256 261 257 247 239 233 226 224 224 220 223 236 239 215 234 242 250 247 252 250 254 268 269 267 276 262 261 260 261 270 277
247 246 245 244 240 231 220 207 229 217 220 218 237 237 247 246 231 222 222 220 209 214 229 225 239 238 218 241 248 259 269 256 259 265 271 268 254 244 253 250 252 262 276 282
243 247 245 243 241 240 236 229 205 201 180 198 216 214 252 207 190 203 202 201 210 216 219 236 237 242 222 244 249 260 259 266 270 269 258 257 253 246 243 246 257 266 278 287
240 242 243 244 236 231 228 230 224 211 202 199 194 189 228 185 182 187 182 194 208 200 219 228 207 223 221 231 243 247 255 256 257 257 252 249 242 240 244 252 262 273 284 289
238 232 228 227 227 228 225 203 202 197 200 195 184 175 179 176 174 188 173 198 218 207 218 168 225 239 244 249 256 258 262 256 247 228 236 234 232 239 250 262 271 282 288 294
223 205 218 238 202 184 188 197 193 167 193 174 168 193 171 200 160 191 215 200 196 218 193 204 217 252 238 238 242 248 253 247 242 238 239 243 248 252 263 272 282 289 294 298
217 217 210 183 196 214 190 175 156 188 202 166 160 184 192 181 175 168 183 203 198 233 131 199 244 241 239 229 232 241 245 243 241 240 242 247 258 267 277 286 290 294 297 302
230 214 186 210 180 200 194 168 181 176 171 171 164 163 158 154 183 178 179 222 211 115 184 222 232 218 228 220 227 228 221 219 227 241 254 265 273 282 288 292 296 297 298 303
193 192 200 198 196 212 178 177 162 189 175 170 163 132 159 165 173 171 201 151 153 195 214 227 227 220 209 200 200 206 210 221 242 264 275 284 289 293 297 298 297 297 299 301
202 183 216 204 145 201 191 184 146 162 180 154 127 106 135 151 172 186 116 166 227 219 217 222 187 178 181 187 191 198 214 239 263 278 287 294 299 300 302 299 298 297 299 299
232 182 135 97 145 252 185 182 168 166 160 133 116 126 147 194 183 169 208 192 213 218 203 182 164 167 172 175 181 201 250 279 288 295 299 303 304 307 309 309 302 299 298 295
118 94 114 148 13 154 161 153 156 163 161 150 131 157 193 111 176 203 187 210 243 167 173 163 166 169 174 180 190 227 256 281 297 304 307 312 312 311 310 309 304 297 294 295
Wind_Speed_850mb
34 36 39 40 38 34 23 20 6 19 45 19 11 17 9 12 8 2 6 8 18 26 18 20 19 28 24 2 15 22 15 7 12 38 32 20 21 33 40 27 24 25 34 38
27 25 18 20 19 22 27 17 9 30 48 13 17 12 12 17 13 14 7 11 9 4 16 13 23 24 5 11 8 7 6 6 17 14 14 1 12 14 18 15 3 29 29 7
17 17 13 10 11 22 31 15 7 12 31 19 13 19 18 17 7 12 23 18 14 15 20 20 20 17 6 12 8 15 5 8 15 26 32 30 19 21 16 18 12 22 23 35
24 11 10 12 15 13 27 12 6 9 10 19 15 8 5 8 9 4 6 6 9 1 9 9 16 19 12 6 9 4 1 14 20 25 24 23 27 32 34 33 29 17 30 36
22 19 18 13 8 16 16 12 10 8 5 3 9 15 23 37 29 21 14 22 23 11 20 24 24 15 18 26 5 6 3 16 21 27 33 28 32 35 39 38 41 44 47 51
27 26 21 25 15 20 9 14 13 9 11 9 12 10 12 7 14 4 5 7 1 6 9 3 5 12 16 16 8 3 5 8 15 35 31 19 21 39 34 38 46 47 45 27
24 27 24 28 27 24 21 15 15 10 6 15 12 10 11 14 10 6 12 1 4 4 6 18 25 25 35 41 42 41 27 25 12 22 16 38 30 23 27 35 35 1 6 7
38 27 24 19 19 30 32 28 21 13 5 16 14 19 12 9 9 11 18 22 22 16 2 2 9 4 5 14 33 33 38 28 16 16 30 36 39 33 18 17 27 14 15 7
39 33 31 41 38 35 38 37 31 16 8 16 18 18 25 12 10 4 10 10 15 15 8 4 8 8 1 8 10 7 14 26 20 5 14 19 14 4 5 4 18 18 10 5
48 56 56 55 44 42 56 55 45 40 17 28 30 14 15 19 15 5 4 11 12 25 9 8 10 10 6 10 7 6 3 5 24 25 23 18 11 9 12 10 9 17 21 33
48 52 47 44 62 56 47 53 59 68 30 38 44 53 27 20 26 11 15 8 6 7 13 9 8 11 12 6 9 7 11 11 8 2 7 20 11 14 11 3 29 40 38 45
55 59 59 56 49 46 58 57 49 45 52 28 27 62 64 64 49 36 36 21 18 24 9 10 5 7 6 12 16 12 15 20 13 17 14 9 15 20 35 57 57 59 51 50
60 62 60 50 55 54 54 64 62 43 45 36 47 48 64 65 76 67 37 27 39 29 35 14 8 15 10 12 17 26 31 41 22 25 38 42 60 64 68 71 60 54 50 49
64 59 61 60 59 56 58 66 69 59 19 11 38 54 63 56 58 76 81 73 37 41 42 20 11 11 25 15 21 24 27 12 20 29 41 50 63 63 71 67 58 49 44 41
58 58 60 58 59 56 57 58 60 51 48 6 11 27 41 42 42 57 66 79 53 27 16 12 16 28 17 22 20 27 40 37 24 31 57 43 63 63 55 48 41 38 38 35
59 56 55 56 57 55 55 46 70 67 59 16 9 31 59 55 54 57 61 74 68 53 21 14 24 44 20 11 22 47 49 51 62 57 79 63 73 57 50 51 44 35 32 31
59 59 57 56 55 58 57 19 25 37 68 20 7 9 33 46 43 50 48 53 39 38 29 20 24 31 24 9 19 51 51 55 65 70 62 56 49 29 37 38 34 30 30 30
55 55 55 53 54 60 73 82 39 34 54 20 7 5 2 20 13 16 26 23 31 23 18 19 17 15 16 15 37 54 56 67 67 63 59 53 38 34 33 30 29 28 28 32
49 49 49 51 62 60 55 62 76 63 42 12 13 11 8 19 12 13 17 21 9 13 11 15 16 13 15 23 38 50 64 46 44 42 39 31 30 30 28 26 26 27 26 31
42 39 30 21 53 61 40 34 38 45 34 30 9 21 9 26 22 19 14 13 7 9 14 13 11 24 55 45 56 61 47 34 26 20 21 27 26 26 27 26 25 25 30 38
44 25 24 21 33 50 31 16 14 11 10 22 19 43 10 28 9 10 17 5 7 8 7 11 8 11 21 54 56 46 39 28 28 28 27 23 23 22 24 25 27 32 38 44
38 20 22 28 25 17 11 14 12 11 11 14 12 20 34 21 18 8 13 8 8 11 8 6 6 9 26 25 27 27 24 23 22 21 20 18 19 22 25 30 35 39 42 43
31 18 19 14 15 14 15 20 5 7 10 28 22 10 24 16 19 8 8 11 11 11 7 8 10 4 12 20 20 17 17 15 15 15 15 17 20 25 31 36 36 42 45 41
25 15 15 13 8 12 9 10 13 16 30 54 41 14 8 12 10 6 9 4 7 8 7 12 6 10 18 18 17 17 15 13 12 15 19 22 27 30 30 35 41 45 44 39
17 15 11 9 4 7 5 16 16 23 47 57 18 11 11 4 7 7 8 8 10 11 10 7 7 20 21 18 16 14 13 12 14 18 22 25 29 33 33 32 35 37 37 34
13 5 7 6 5 2 7 18 17 33 51 31 15 8 7 8 7 10 14 11 14 9 7 12 24 27 25 23 18 11 10 13 17 21 24 27 29 30 31 29 28 27 28 25
5 3 5 6 3 8 12 14 19 44 29 6 7 12 15 7 7 9 9 11 9 8 17 29 27 24 21 16 11 10 12 14 17 18 21 22 24 26 27 26 20 20 17 16
Wind_Direction_850mb
252 254 257 260 265 264 242 196 178 175 160 172 192 227 211 231 239 342 294 302 257 258 275 273 264 258 251 129 295 273 243 250 246 262 264 247 254 263 252 243 250 247 254 256
253 247 242 250 228 206 177 175 135 168 173 197 212 222 229 239 225 230 225 250 237 232 262 270 254 262 290 318 293 289 15 246 275 255 245 177 245 259 272 279 308 250 259 238
214 187 208 222 163 174 174 163 141 172 205 230 220 236 252 237 268 250 232 241 245 254 257 252 271 282 357 351 346 344 317 223 254 275 284 308 285 269 263 248 260 276 254 273
214 203 207 220 213 179 175 162 186 173 185 224 209 245 223 203 207 245 238 224 195 122 269 291 254 280 285 236 344 259 281 268 278 275 280 279 273 275 265 260 268 258 285 288
205 217 217 223 221 192 187 162 154 164 142 90 181 208 240 245 247 247 238 258 279 278 251 251 284 297 271 272 287 284 189 262 288 282 278 259 263 261 264 275 272 264 261 266
209 227 220 210 220 191 179 183 162 153 147 167 186 206 215 166 163 94 136 114 294 236 255 204 199 249 257 260 259 274 276 270 270 270 276 288 260 246 260 267 270 271 275 293
222 226 231 211 209 212 214 199 174 155 198 202 204 192 193 173 178 232 182 164 220 214 260 297 283 263 260 255 253 238 248 245 257 272 299 258 274 314 276 271 281 32 115 129
224 227 231 225 220 214 213 210 198 179 215 210 203 202 194 192 223 244 251 252 247 268 220 234 311 292 303 259 239 245 233 253 257 251 251 287 301 281 253 245 278 182 161 177
237 233 231 226 221 219 225 230 217 197 150 226 202 202 216 218 214 231 221 233 210 188 177 156 222 246 285 284 308 46 225 236 236 167 249 265 306 124 109 122 276 176 189 261
241 240 239 242 238 227 227 229 223 213 211 231 183 191 195 175 176 188 181 177 172 190 203 197 207 239 209 244 230 246 183 204 229 237 250 266 267 151 144 237 293 170 250 272
242 240 239 241 236 236 230 236 228 213 224 239 220 221 198 173 182 182 177 141 198 175 203 203 203 218 205 217 245 234 253 250 206 169 248 267 172 130 222 267 299 300 289 293
246 242 239 230 230 228 234 240 240 246 227 243 240 239 244 244 242 222 195 208 163 183 186 207 195 209 190 218 257 206 251 226 255 215 246 257 200 244 258 285 288 286 288 294
244 242 241 236 238 235 225 234 242 228 235 249 244 242 254 245 239 239 227 227 223 213 224 180 213 236 179 231 237 257 257 258 244 262 254 259 268 268 273 279 279 283 287 293
243 243 240 235 239 239 233 228 232 221 227 244 262 266 256 258 240 236 235 234 226 227 219 208 213 227 198 229 242 237 246 251 241 252 262 273 266 267 270 274 276 276 276 281
248 244 243 240 237 240 240 237 233 233 220 288 286 280 262 260 253 238 235 229 225 212 199 208 224 237 229 243 252 250 246 243 246 256 268 262 273 276 277 275 262 259 271 276
249 246 244 244 242 234 229 225 228 231 231 235 238 256 261 257 247 239 233 226 224 224 220 223 236 239 215 234 242 250 247 252 250 254 268 269 267 276 262 261 260 261 270 277
247 246 245 244 240 231 220 207 229 217 220 218 237 237 247 246 231 222 222 220 209 214 229 225 239 238 218 241 248 259 269 256 259 265 271 268 254 244 253 250 252 262 276 282
243 247 245 243 241 240 236 229 205 201 180 198 216 214 252 207 190 203 202 201 210 216 219 236 237 242 222 244 249 260 259 266 270 269 258 257 253 246 243 246 257 266 278 287
240 242 243 244 236 231 228 230 224 211 202 199 194 189 228 185 182 187 182 194 208 200 219 228 207 223 221 231 243 247 255 256 257 257 252 249 242 240 244 252 262 273 284 289
238 232 228 227 227 228 225 203 202 197 200 195 184 175 179 176 174 188 173 198 218 207 218 168 225 239 244 249 256 258 262 256 247 228 236 234 232 239 250 262 271 282 288 294
223 205 218 238 202 184 188 197 193 167 193 174 168 193 171 200 160 191 215 200 196 218 193 204 217 252 238 238 242 248 253 247 242 238 239 243 248 252 263 272 282 289 294 298
217 217 210 183 196 214 190 175 156 188 202 166 160 184 192 181 175 168 183 203 198 233 131 199 244 241 239 229 232 241 245 243 241 240 242 247 258 267 277 286 290 294 297 302
230 214 186 210 180 200 194 168 181 176 171 171 164 163 158 154 183 178 179 222 211 115 184 222 232 218 228 220 227 228 221 219 227 241 254 265 273 282 288 292 296 297 298 303
193 192 200 198 196 212 178 177 162 189 175 170 163 132 159 165 173 171 201 151 153 195 214 227 227 220 209 200 200 206 210 221 242 264 275 284 289 293 297 298 297 297 299 301
202 183 216 204 145 201 191 184 146 162 180 154 127 106 135 151 172 186 116 166 227 219 217 222 187 178 181 187 191 198 214 239 263 278 287 294 299 300 302 299 298 297 299 299
232 182 135 97 145 252 185 182 168 166 160 133 116 126 147 194 183 169 208 192 213 218 203 182 164 167 172 175 181 201 250 279 288 295 299 303 304 307 309 309 302 299 298 295
118 94 114 148 13 154 161 153 156 163 161 150 131 157 193 111 176 203 187 210 243 167 173 163 166 169 174 180 190 227 256 281 297 304 307 312 312 311 310 309 304 297 294 295